{"data":{"norad_id":48967,"epoch":"2026-09-20T04:49:33.363840Z","epoch_age_seconds":33614,"freshness":"FRESH","line1":"1 48967U 21060A   26263.20108060 -.00000025  00000+0 -99942-4 0  9994","line2":"2 48967  87.9151 209.9148 0001931  74.5140 285.6204 13.16592872252117","mean_motion":13.16592872,"eccentricity":0.0001931,"inclination_deg":87.9151,"raan_deg":209.9148,"arg_perigee_deg":74.514,"mean_anomaly_deg":285.6204,"bstar":-9.9942e-5,"rev_number":25211,"period_min":109.37321860269,"perigee_km":1196.299074013,"apogee_km":1199.2248861991,"semimajor_km":7575.898980106,"source":"CELESTRAK","updated_at":"2026-09-20T09:00:44.623077Z"}}